Flag for Germany Weather past 2 weeks in Meissen, Saxony, Germany

Now
39 °F

Light rain. Partly cloudy.


Feels Like: 30 °F
Forecast: 32 / 38 °F
Wind: 18 mph from West

Location: Dresden-Klotzsche

Current Time: Jan 29, 2015 at 2:13:51 AM

Latest Report: Jan 29, 2015 at 1:50 AM


Visibility: N/A

Pressure: 29.36 "Hg

Humidity: 75%

Dew point: 32 °F

Location of MeissenLocation

Historic Weather in Meissen — Graph

°F

Meissen temperature yesterday

Maximum temperature yesterday: 41 °F (at 1:50 PM)
Minimum temperature yesterday: 34 °F (at 3:20 AM)
Average temperature yesterday: 37 °F

Past Weeks' High & Low Weather Summary

 TemperatureHumidityPressure
High52 °F (Jan 14, 12:20 AM)100% (Jan 17, 9:20 AM)30.30 "Hg (Jan 17, 9:20 AM)
Low28 °F (Jan 18, 10:20 PM)50% (Jan 15, 10:50 PM)29.36 "Hg (Jan 28, 11:50 PM)
Average35 °F87%29.96 "Hg
* Reported Jan 14 12:20 AM — Jan 29 12:50 AM, Meissen, Weather by CustomWeather, © 2014

Note: Actual official high and low records may vary slightly from our data, if they occured in-between our weather recording intervals... More about our weather records

Advertising

Meissen weather history for previous 24 hours

 ConditionsComfort  
Time TempWeatherWind HumidityBarometerVisibility
12:50 AM
Jan 29
39 °FPassing clouds.15 mph75%29.36 "HgN/A
12:20 AM39 °FPassing clouds.16 mph81%29.36 "HgN/A
11:50 PM
Jan 28
37 °FLight rain. Mostly cloudy.20 mph87%29.36 "HgN/A
11:20 PM37 °FLight rain. Overcast.20 mph87%29.39 "HgN/A
10:20 PM36 °FLight rain. Overcast.21 mph93%29.39 "HgN/A
9:50 PM37 °FLight rain. Mostly cloudy.18 mph81%29.45 "HgN/A
9:20 PM37 °FPassing clouds.16 mph75%29.45 "HgN/A
8:50 PM37 °FPassing clouds.14 mph75%29.45 "HgN/A
8:20 PM37 °FPassing clouds.16 mph75%29.47 "HgN/A
7:50 PM37 °FPassing clouds.16 mph75%29.50 "HgN/A
7:20 PM37 °FPassing clouds.18 mph75%29.53 "HgN/A
6:50 PM37 °FPassing clouds.15 mph75%29.53 "HgN/A
6:20 PM37 °FPassing clouds.18 mph75%29.56 "HgN/A
5:50 PM37 °FPassing clouds.15 mph75%29.59 "HgN/A
5:20 PM37 °FPartly cloudy.12 mph75%29.62 "HgN/A
4:50 PM37 °FPartly cloudy.15 mph75%29.65 "HgN/A
4:20 PM39 °FBroken clouds.15 mph70%29.68 "HgN/A
3:50 PM39 °FBroken clouds.14 mph70%29.71 "HgN/A
3:20 PM39 °FPartly sunny.17 mph70%29.71 "HgN/A
2:50 PM39 °FBroken clouds.16 mph75%29.74 "HgN/A
2:20 PM39 °FPartly sunny.15 mph75%29.77 "HgN/A
1:50 PM41 °FPartly sunny.16 mph70%29.80 "HgN/A
1:20 PM39 °FBroken clouds.13 mph75%29.83 "HgN/A
12:50 PM39 °FPartly sunny.12 mph75%29.86 "HgN/A
12:20 PM39 °FPartly sunny.15 mph75%29.86 "HgN/A
11:50 AM37 °FPartly sunny.13 mph81%29.89 "HgN/A
11:20 AM37 °FPartly sunny.14 mph81%29.92 "HgN/A
10:50 AM37 °FBroken clouds.13 mph81%29.92 "HgN/A
10:20 AM37 °FPartly sunny.10 mph87%29.95 "HgN/A
9:50 AM36 °FBroken clouds.10 mph87%29.95 "HgN/A
9:20 AM36 °FPartly sunny.10 mph87%29.95 "HgN/A
8:50 AM36 °FLight rain. Partly sunny.9 mph87%29.98 "HgN/A
8:20 AM34 °FBroken clouds.7 mph93%29.98 "HgN/A
7:50 AM34 °FBroken clouds.6 mph93%29.98 "HgN/A
7:20 AM34 °FPassing clouds.7 mph93%29.98 "HgN/A
6:50 AM34 °FPassing clouds.7 mph87%29.98 "HgN/A
6:20 AM34 °FPassing clouds.7 mph87%30.01 "HgN/A
5:50 AM34 °FPassing clouds.7 mph87%30.01 "HgN/A
5:20 AM34 °FPassing clouds.6 mph93%30.01 "HgN/A
4:50 AM34 °FPassing clouds.5 mph93%30.01 "HgN/A
4:20 AM34 °FPassing clouds.7 mph93%30.04 "HgN/A
3:50 AM34 °FPartly cloudy.7 mph93%30.04 "HgN/A
3:20 AM34 °FPassing clouds.7 mph93%30.04 "HgN/A
2:50 AM36 °FPassing clouds.8 mph87%30.04 "HgN/A
2:20 AM36 °FPartly cloudy.8 mph87%30.04 "HgN/A
Weather by CustomWeather, © 2014

See weather overviewHow to use our weather pages